STARLINK-30061 (55698 NORAD) Tracking and Keplerian Element Data

This shows tracking and keplerian element data for the satellite.

Feedback or suggestion? Click here.




ElementValue
Catalog55698
NameSTARLINK-30061
Epoch Orbit169
Epoch Day63.16667824
Epoch Year2023
RAAN258.1559
Inclination43.0094
Eccentricity0.0001824
Argument of Perigee274.2553
Mean Anonmoly141.3133
Mean Motion15.62775858
Decay Rate-0.0064028
L11 55698U 23026D 23063.16667824 -.00640280 00000+0 -74795-2 0 9995
L22 55698 43.0094 258.1559 0001824 274.2553 141.3133 15.62775858 1699



Live tracking and technical data element details for STARLINK-30061 (NORAD 55698). STARLINK-30061 can be tracked NOW for your location showing map with azimuth and elevation plus other details from your city location.







IsCatalogInMostPopularTable: catalog: 55698, numindb: 1
Update: records affected: 1



GetName: 55698 STARLINK-30061

Hit Count: updated at: Wed, 22 Mar 2023 15:37:49 GMT